Regional Weather Roundup
Issued by NWS State College, PA

Home | Current Version | Previous Version | Graphics & Text | Print | Product List | Glossary On
Versions: 1 2 3 4 5 6 7 8 9 10 11 12 13 14 15 16 17 18 19 20 21 22 23 24 25 26 27 28 29 30 31 32 33 34 35 36 37 38 39 40 41 42 43 44 45 46 47 48 49 50
000
ASUS41 KCTP 250303
RWRCTP

REGIONAL WEATHER ROUNDUP
NATIONAL WEATHER SERVICE STATE COLLEGE PA
1100 PM EDT MON APR 24 2017

Note: "fair" indicates few or no clouds below 12,000 feet with no
significant weather and/or obstructions to visibility.

* = STATION THAT DOES NOT REPORT PRECIPITATION /E.G. RAIN...SNOW...ETC/
    THUNDER OR FOG.

PAZ002>004-007>009-013>016-020>023-029>032-250400-
WESTERN PENNSYLVANIA

CITY           SKY/WX    TMP DP  RH WIND       PRES   REMARKS
ERIE           CLOUDY    49  41  74 CALM      29.98S
MEADVILLE      CLOUDY    59  39  47 SE10G17   29.98S
FRANKLIN*      CLOUDY    55  37  50 SE16      30.01S
NEW CASTLE     CLOUDY    57  43  59 E10G20    29.98F
BEAVER COUNTY  NOT AVBL
BUTLER*        MOCLDY    54  43  66 E14G21    29.99F
PITTSBURGH INT CLOUDY    54  45  71 E10       29.96F
PITTSBURGH     CLOUDY    53  42  66 E10G20    29.96F
INDIANA*       CLOUDY    54  43  66 E10G16    30.03F
LATROBE        CLOUDY    54  41  62 NE5       29.99S
WASHINGTON CO* CLOUDY    52  45  76 E7        29.97F
$$

PAZ004>006-010>012-017>019-024>028-033>037-041-042-045-046-049>053-250400-
CENTRAL PENNSYLVANIA

CITY           SKY/WX    TMP DP  RH WIND       PRES   REMARKS
BRADFORD       CLOUDY    56  34  43 SE14G25   30.03F
DUBOIS         CLOUDY    52  39  61 E10       30.02S
CLEARFIELD     CLOUDY    51  44  77 NE8       30.05F
JOHNSTOWN      CLOUDY    48  39  71 E14G23    30.00F
ALTOONA        CLOUDY    53  38  56 E10       30.04F
STATE COLLEGE  CLOUDY    53  42  66 N5        30.06S
WILLIAMSPORT   LGT RAIN  54  50  86 CALM      30.07S
SELINSGROVE    CLOUDY    56  41  57 CALM      30.07F
FT INDIANTOWN  CLOUDY    54  40  60 NE8       30.07F
CAPITAL CITY   CLOUDY    54  43  66 E8        30.06S
HARRISBURG     CLOUDY    54  44  69 E5        30.05F
YORK           CLOUDY    53  43  68 E7        30.04F
$$

PAZ038>040-043-044-047-048-054-055-060>062-067>071-250400-
EASTERN PENNSYLVANIA

CITY           SKY/WX    TMP DP  RH WIND       PRES   REMARKS
SCRANTON       CLOUDY    56  40  55 N5        30.08F
MOUNT POCONO   CLOUDY    50  36  58 E10       30.10S
ALLENTOWN      CLOUDY    54  43  66 E7        30.10S
QUAKERTOWN*    CLOUDY    52  37  58 E7        30.10F
READING        CLOUDY    55  38  52 E6        30.06F
LANCASTER      CLOUDY    54  39  57 E12       30.06F
COATESVILLE    CLOUDY    54  36  50 E15G22    30.07S
POTTSTOWN      CLOUDY    53  35  50 NE7       30.09F
BLUE BELL      CLOUDY    52  36  54 E8        30.09F
DOYLESTOWN     CLOUDY    52  39  61 VRB3      30.09S
WILLOW GROVE   NOT AVBL
NORTH PHILA    CLOUDY    54  42  64 E13       30.10F
PHILADELPHIA   LGT RAIN  53  43  68 E14G24    30.07F
$$



USA.gov is the U.S. government's official web portal to all federal, state and local government web resources and services.